GW0939 Weather Reports


Display with metric or nautical units.
time (UTC)temp
F
wind
direction
speed
MPH
gust
MPH
rain 1hr
in
rain 24hr
in
rain mn
in
humidity
%
barometer
mb
20260506123905 65 302 1.0 5.0 0.00 0.00 0.00 77 1007.6
20260506123403 65 260 1.0 4.0 0.00 0.00 0.00 78 1007.8
20260506122904 64 56 1.0 4.0 0.00 0.00 0.00 78 1007.8
20260506122405 64 293 1.0 4.0 0.00 0.00 0.00 78 1007.7
20260506121904 64 288 1.0 5.0 0.00 0.00 0.00 78 1007.7
20260506120905 64 287 1.0 3.0 0.00 0.00 0.00 78 1007.8
20260506120405 64 219 1.0 4.0 0.00 0.00 0.00 78 1007.8
20260506115905 64 11 1.0 4.0 0.00 0.00 0.00 78 1007.9
20260506114905 64 355 2.0 7.0 0.00 0.00 0.00 78 1007.9
20260506114407 64 145 1.0 7.0 0.00 0.00 0.00 78 1007.9
20260506113909 64 298 1.0 3.0 0.00 0.00 0.00 78 1007.8
20260506113406 64 304 0.0 3.0 0.00 0.00 0.00 78 1007.6
20260506112904 64 236 0.0 2.0 0.00 0.00 0.00 78 1007.5
20260506112406 64 283 1.0 5.0 0.00 0.00 0.00 78 1007.7
20260506111905 64 193 1.0 5.0 0.00 0.00 0.00 78 1007.7
20260506111405 64 348 1.0 4.0 0.00 0.00 0.00 78 1007.5
20260506110905 64 283 1.0 4.0 0.00 0.00 0.00 77 1007.5
20260506110404 64 273 1.0 3.0 0.00 0.00 0.00 77 1007.5
20260506105905 64 320 1.0 6.0 0.00 0.00 0.00 77 1007.7
20260506104905 64 323 1.0 5.0 0.00 0.00 0.00 77 1007.4
20260506104405 64 269 1.0 5.0 0.00 0.00 0.00 77 1007.6
20260506103404 64 205 1.0 3.0 0.00 0.00 0.00 76 1007.4
20260506102906 64 5 1.0 5.0 0.00 0.00 0.00 76 1007.6
20260506101905 64 207 1.0 6.0 0.00 0.00 0.00 76 1007.3
20260506101403 64 232 1.0 6.0 0.00 0.00 0.00 76 1007.4
20260506100404 64 290 1.0 4.0 0.00 0.00 0.00 75 1007.3
20260506095902 64 35 1.0 3.0 0.00 0.00 0.00 75 1007.4
20260506095403 64 318 1.0 3.0 0.00 0.00 0.00 74 1007.2
20260506094905 64 39 1.0 3.0 0.00 0.00 0.00 74 1007.1
20260506094402 64 246 1.0 3.0 0.00 0.00 0.00 74 1007.2
20260506093902 64 314 1.0 3.0 0.00 0.00 0.00 73 1007.4
20260506093403 64 291 1.0 3.0 0.00 0.00 0.00 73 1007.6
20260506092904 64 248 1.0 3.0 0.00 0.00 0.00 73 1007.5
20260506092405 64 300 1.0 3.0 0.00 0.00 0.00 72 1007.4
20260506091905 64 289 1.0 4.0 0.00 0.00 0.00 72 1007.5
20260506091405 64 310 1.0 4.0 0.00 0.00 0.00 71 1007.4
20260506090404 64 259 1.0 6.0 0.00 0.00 0.00 70 1007.3
20260506085905 64 325 1.0 6.0 0.00 0.00 0.00 70 1007.4
20260506085404 64 293 1.0 3.0 0.00 0.00 0.00 69 1007.5
20260506084906 65 275 1.0 3.0 0.00 0.00 0.00 69 1007.6
20260506083903 65 336 0.0 5.0 0.00 0.00 0.00 68 1007.5
20260506083405 65 307 1.0 5.0 0.00 0.00 0.00 68 1007.6
20260506082904 65 78 1.0 3.0 0.00 0.00 0.00 68 1007.6
20260506081904 65 319 0.0 3.0 0.00 0.00 0.00 66 1007.6
20260506081405 65 196 0.0 3.0 0.00 0.00 0.00 66 1007.6
20260506080901 65 329 0.0 3.0 0.00 0.00 0.00 65 1007.6
20260506073404 67 253 0.0 1.0 0.00 0.00 0.00 63 1007.8
20260506072904 67 253 0.0 1.0 0.00 0.00 0.00 63 1007.7
20260506072404 67 253 0.0 2.0 0.00 0.00 0.00 62 1007.7
20260506071904 67 286 1.0 2.0 0.00 0.00 0.00 62 1007.6
20260506071403 67 294 1.0 3.0 0.00 0.00 0.00 62 1007.6
20260506070903 67 317 1.0 3.0 0.00 0.00 0.00 62 1007.7
20260506070405 67 286 1.0 2.0 0.00 0.00 0.00 62 1007.7
20260506062403 68 269 1.0 3.0 0.00 0.00 0.00 61 1008.1
20260506061406 68 224 1.0 3.0 0.00 0.00 0.00 60 1008.1
20260506060904 68 302 1.0 3.0 0.00 0.00 0.00 60 1008.0
20260506060404 68 287 1.0 4.0 0.00 0.00 0.00 60 1008.0
20260506050901 69 269 1.0 4.0 0.00 0.00 0.00 59 1008.4
20260506044905 69 288 2.0 7.0 0.00 0.00 0.00 57 1008.5
20260506044404 69 284 2.0 7.0 0.00 0.00 0.00 57 1008.6
20260506043905 70 227 1.0 5.0 0.00 0.00 0.00 56 1008.5
20260506043404 70 227 1.0 3.0 0.00 0.00 0.00 55 1008.5
20260506042903 70 269 1.0 3.0 0.00 0.00 0.00 55 1008.6
20260506042404 70 243 1.0 3.0 0.00 0.00 0.00 54 1008.5
20260506041405 71 290 1.0 4.0 0.00 0.00 0.00 53 1008.5
20260506040904 71 269 1.0 4.0 0.00 0.00 0.00 52 1008.5
20260506035904 71 56 1.0 3.0 0.00 0.00 0.00 51 1008.4
20260506035405 71 347 1.0 6.0 0.00 0.00 0.00 51 1008.4
20260506034905 71 196 1.0 6.0 0.00 0.00 0.00 50 1008.5
20260506034405 71 229 1.0 5.0 0.00 0.00 0.00 50 1008.4
20260506033905 71 336 1.0 5.0 0.00 0.00 0.00 50 1008.4
20260506032905 71 267 1.0 4.0 0.00 0.00 0.00 50 1008.3
20260506031904 72 52 1.0 4.0 0.00 0.00 0.00 50 1008.4
20260506031404 72 254 1.0 3.0 0.00 0.00 0.00 49 1008.3
20260506030905 72 282 1.0 4.0 0.00 0.00 0.00 49 1008.4
20260506030404 72 256 2.0 4.0 0.00 0.00 0.00 48 1008.4
20260506025903 72 348 2.0 7.0 0.00 0.00 0.00 49 1008.5
20260506025406 72 277 2.0 7.0 0.00 0.00 0.00 48 1008.3
20260506024905 73 234 1.0 5.0 0.00 0.00 0.00 48 1008.1
20260506024407 73 234 1.0 4.0 0.00 0.00 0.00 48 1008.3
20260506023904 73 289 2.0 5.0 0.00 0.00 0.00 48 1008.1
20260506023405 73 202 2.0 8.0 0.00 0.00 0.00 47 1008.1
20260506022404 73 214 2.0 7.0 0.00 0.00 0.00 47 1008.1
20260506021906 73 309 2.0 8.0 0.00 0.00 0.00 47 1008.1
20260506021404 73 342 2.0 9.0 0.00 0.00 0.00 47 1008.1
20260506020904 73 268 2.0 9.0 0.00 0.00 0.00 47 1008.0
20260506015905 73 271 2.0 8.0 0.00 0.00 0.00 45 1008.1
20260506015405 73 336 2.0 8.0 0.00 0.00 0.00 45 1008.1
20260506014903 73 210 1.0 5.0 0.00 0.00 0.00 45 1008.1
20260506014405 73 240 1.0 5.0 0.00 0.00 0.00 44 1008.1
20260506013903 73 309 1.0 4.0 0.00 0.00 0.00 45 1008.1
20260506013404 73 216 1.0 7.0 0.00 0.00 0.00 44 1008.0
20260506012403 73 251 1.0 2.0 0.00 0.00 0.00 44 1007.9
20260506011906 73 255 1.0 4.0 0.00 0.00 0.00 44 1007.9
20260506010904 73 297 1.0 4.0 0.00 0.00 0.00 43 1007.7
20260506010404 73 307 1.0 4.0 0.00 0.00 0.00 43 1007.6
20260506005404 73 209 1.0 3.0 0.00 0.00 0.00 43 1007.5
20260506004905 74 212 1.0 6.0 0.00 0.00 0.00 42 1007.5
20260506004404 74 346 1.0 6.0 0.00 0.00 0.00 43 1007.6
20260506003904 74 5 1.0 5.0 0.00 0.00 0.00 43 1007.4
20260506003404 74 267 1.0 5.0 0.00 0.00 0.00 43 1007.6
20260506002903 74 283 1.0 5.0 0.00 0.00 0.00 42 1007.6
20260506002404 74 273 1.0 3.0 0.00 0.00 0.00 42 1007.4
20260506001904 74 321 1.0 3.0 0.00 0.00 0.00 42 1007.3
20260506001404 75 275 1.0 3.0 0.00 0.00 0.00 41 1007.2
20260506000906 75 273 1.0 3.0 0.00 0.00 0.00 41 1007.3
20260505235904 75 270 0.0 2.0 0.00 0.00 0.00 40 1007.2
20260505235402 76 270 1.0 3.0 0.00 0.00 0.00 40 1007.2
20260505234903 76 275 1.0 3.0 0.00 0.00 0.00 39 1007.1
20260505234404 76 293 1.0 4.0 0.00 0.00 0.00 40 1007.0
20260505233903 76 278 1.0 4.0 0.00 0.00 0.00 40 1007.1
20260505232909 77 214 1.0 2.0 0.00 0.00 0.00 39 1007.0
20260505232405 77 211 1.0 4.0 0.00 0.00 0.00 39 1006.7
20260505231905 77 281 2.0 4.0 0.00 0.00 0.00 38 1006.7
20260505231404 77 229 2.0 9.0 0.00 0.00 0.00 38 1006.6
20260505230403 77 298 2.0 7.0 0.00 0.00 0.00 38 1006.5
20260505225905 78 271 3.0 9.0 0.00 0.00 0.00 38 1006.6
20260505225404 78 239 2.0 9.0 0.00 0.00 0.00 38 1006.5
20260505224904 78 306 2.0 5.0 0.00 0.00 0.00 38 1006.3
20260505224404 78 244 2.0 5.0 0.00 0.00 0.00 37 1006.2
20260505223904 78 102 2.0 9.0 0.00 0.00 0.00 37 1006.3
20260505223404 78 355 2.0 9.0 0.00 0.00 0.00 37 1006.2
20260505222904 79 214 1.0 4.0 0.00 0.00 0.00 37 1006.1
20260505221855 79 229 3.0 11.0 0.00 0.00 0.00 36 1006.0
20260505221355 79 350 3.0 11.0 0.00 0.00 0.00 35 1006.1
20260505220855 80 248 2.0 6.0 0.00 0.00 0.00 36 1006.0
20260505220354 80 241 2.0 6.0 0.00 0.00 0.00 36 1006.0
20260505215857 80 200 2.0 8.0 0.00 0.00 0.00 35 1005.9
20260505215356 80 216 2.0 8.0 0.00 0.00 0.00 34 1005.8
20260505214856 80 252 2.0 7.0 0.00 0.00 0.00 35 1005.8
20260505214354 80 234 2.0 5.0 0.00 0.00 0.00 35 1005.7
20260505213855 80 259 2.0 5.0 0.00 0.00 0.00 35 1005.6
20260505213356 80 257 2.0 5.0 0.00 0.00 0.00 36 1005.6
20260505212851 81 215 2.0 7.0 0.00 0.00 0.00 35 1005.7
20260505212351 81 233 3.0 7.0 0.00 0.00 0.00 34 1005.6
20260505211854 81 243 3.0 7.0 0.00 0.00 0.00 33 1005.6
20260505211354 81 285 2.0 6.0 0.00 0.00 0.00 33 1005.6
20260505210852 82 101 2.0 5.0 0.00 0.00 0.00 34 1005.6
20260505210352 82 207 2.0 11.0 0.00 0.00 0.00 33 1005.5
20260505205854 82 319 3.0 11.0 0.00 0.00 0.00 34 1005.2
20260505205347 82 325 3.0 8.0 0.00 0.00 0.00 34 1005.2
20260505204847 82 235 3.0 8.0 0.00 0.00 0.00 34 1005.1
20260505204345 82 230 3.0 6.0 0.00 0.00 0.00 33 1005.2
20260505203847 83 252 3.0 8.0 0.00 0.00 0.00 33 1005.1
20260505203347 83 276 2.0 8.0 0.00 0.00 0.00 35 1005.1
20260505202846 83 236 2.0 7.0 0.00 0.00 0.00 36 1005.0
20260505202347 83 222 3.0 7.0 0.00 0.00 0.00 35 1005.2
20260505201348 83 314 3.0 7.0 0.00 0.00 0.00 34 1005.5
20260505200844 83 196 3.0 7.0 0.00 0.00 0.00 35 1005.7
20260505200344 83 232 2.0 7.0 0.00 0.00 0.00 34 1006.0
20260505195844 83 257 3.0 7.0 0.00 0.00 0.00 35 1005.9
20260505195344 83 274 3.0 6.0 0.00 0.00 0.00 34 1005.8
20260505194845 83 238 3.0 8.0 0.00 0.00 0.00 33 1005.9
20260505194345 83 242 3.0 8.0 0.00 0.00 0.00 34 1005.8
20260505193839 83 259 3.0 7.0 0.00 0.00 0.00 33 1006.0
20260505192841 84 240 3.0 8.0 0.00 0.00 0.00 34 1006.2
20260505192341 84 239 3.0 7.0 0.00 0.00 0.00 33 1006.2
20260505191840 84 201 3.0 6.0 0.00 0.00 0.00 37 1006.1
20260505191340 84 253 3.0 7.0 0.00 0.00 0.00 37 1006.3
20260505190340 84 223 2.0 4.0 0.00 0.00 0.00 39 1006.2
20260505185842 83 240 2.0 4.0 0.00 0.00 0.00 37 1006.3
20260505185338 83 232 3.0 8.0 0.00 0.00 0.00 37 1006.6
20260505184838 83 234 3.0 8.0 0.00 0.00 0.00 36 1006.6
20260505184338 83 233 3.0 7.0 0.00 0.00 0.00 35 1006.5
20260505183838 84 238 3.0 7.0 0.00 0.00 0.00 35 1006.6
20260505182839 83 222 3.0 8.0 0.00 0.00 0.00 35 1006.8
20260505182338 83 260 3.0 9.0 0.00 0.00 0.00 35 1006.8
20260505181838 83 193 3.0 9.0 0.00 0.00 0.00 37 1007.0
20260505181337 83 234 4.0 12.0 0.00 0.00 0.00 38 1007.0
20260505180837 83 267 4.0 12.0 0.00 0.00 0.00 34 1007.0
20260505180338 83 209 3.0 10.0 0.00 0.00 0.00 37 1007.0
20260505175838 83 285 3.0 10.0 0.00 0.00 0.00 35 1007.0
20260505175338 83 170 3.0 8.0 0.00 0.00 0.00 38 1007.0
20260505174338 83 300 3.0 6.0 0.00 0.00 0.00 40 1007.1
20260505173834 83 246 3.0 6.0 0.00 0.00 0.00 41 1007.3
20260505172334 83 269 2.0 9.0 0.00 0.00 0.00 42 1007.3
20260505171836 82 182 2.0 9.0 0.00 0.00 0.00 44 1007.2
20260505171333 82 300 2.0 8.0 0.00 0.00 0.00 43 1007.3
20260505170832 82 286 3.0 8.0 0.00 0.00 0.00 42 1007.4
20260505170333 82 221 2.0 6.0 0.00 0.00 0.00 42 1007.4
20260505164832 82 219 2.0 7.0 0.00 0.00 0.00 42 1007.7
20260505164333 82 302 2.0 7.0 0.00 0.00 0.00 42 1007.7
20260505163830 81 309 2.0 5.0 0.00 0.00 0.00 42 1007.9
20260505161332 80 211 2.0 5.0 0.00 0.00 0.00 44 1008.1
20260505160832 79 240 2.0 5.0 0.00 0.00 0.00 44 1008.4
20260505160332 79 261 2.0 5.0 0.00 0.00 0.00 45 1008.4
20260505153330 78 242 2.0 7.0 0.00 0.00 0.00 46 1008.8
20260505152833 78 219 2.0 6.0 0.00 0.00 0.00 45 1008.8
20260505151332 78 277 2.0 9.0 0.00 0.00 0.00 47 1008.8
20260505150833 78 252 2.0 9.0 0.00 0.00 0.00 48 1008.7
20260505150332 77 232 2.0 9.0 0.00 0.00 0.00 48 1008.7
20260505140305 73 227 2.0 8.0 0.00 0.00 0.00 55 1009.0
20260505130304 65 284 1.0 3.0 0.00 0.00 0.00 71 1009.2
20260505124805 62 286 0.0 2.0 0.00 0.00 0.00 76 1009.1